Tracking 28081 objects as of 27-Sep-2023
HD Live streaming from Space Station
objects crossing your sky now

SL-8 DEB *

Track SL-8 DEB * now!
10-day predictions


NORAD ID: 18510
Int'l Code: 1982-051F
Perigee: 712.0 km
Apogee: 729.2 km
Inclination: 74.0 °
Period: 99.1 minutes
Semi major axis: 7091 km
RCS: 0.0076 m2 (small)
Launch date: June 1, 1982
Source: Commonwealth of Independent States (former USSR) (CIS)
Launch site: PLESETSK MISSILE AND SPACE COMPLEX (PKMTR)

Note: This is SATELLITE DEBRIS
Your satellite tracking list
Your tracking list is empty




NASA's NSSDC Master Catalog

Two Line Element Set (TLE):
1 18510U 82051F   23269.57905904  .00003420  00000-0  82132-3 0  9990
2 18510  73.9902 103.5314 0012129  61.1743   2.2053 14.53747257944241
Source of the keplerian elements: AFSPC